Location: La Brionne
(46.1728°N, 1.7849°E)
Time: 20:49:43
(UTC+00:00)

Cosmos 1300 - Pass Details

Date: 16 June 2021
Orbit: 509 x 513 km, 82.5° (Epoch: 01 August)

Event Time Altitude Azimuth Distance (km) Brightness Sun altitude
Rises 22:03:27 0° 351° (N) 2,639 7.8 -16.1°
Reaches altitude 10° 22:05:36 10° 351° (N) 1,746 6.6 -16.3°
Maximum altitude 22:09:26 88° 77° (ENE) 519 2.6 -16.5°
Enters shadow 22:10:54 36° 170° (S) 823 3.2 -16.6°
